#timestamp,LO_Frequency,Hit,StdDev 
1702879215.3,286046996.6,P
1702879235.1,286046999.1,N
1702879236.0,286046999.1,N
1702879255.8,286047001.1,N
1702879275.7,286047000.3,N
1702879295.5,286047000.9,N
1702879315.4,286047000.7,N
1702879335.2,286046998.1,N
1702879355.0,286046996.5,N
1702879355.9,286046996.5,N
1702879375.8,286046999.2,N
1702879395.6,286046998.7,N
1702879415.4,286046998.5,N
1702879435.3,286046998.7,N
1702879455.1,286046998.4,N
1702879475.9,286046998.8,N
1702879495.7,286046999.4,N
1702879515.5,286046998.7,N
1702879535.4,286046999.2,N
1702879555.2,286046999.4,N
1702879575.0,286046996.5,N
1702879576.0,286046996.5,N
1702879595.8,286046997.0,N
1702879615.6,286046999.3,N
1702879635.5,286046998.9,N
1702879655.3,286047001.0,N
1702879675.1,286047000.7,N
1702879695.9,286046998.2,N
1702879715.7,286046999.2,N
1702879735.5,286046999.4,N
1702879755.4,286046998.9,N
1702879775.2,286047001.0,N
1702879795.1,286047001.1,N
1702879796.0,286047001.1,N
1702879815.8,286047000.7,N
1702879835.6,286047001.0,N
1702879855.5,286047000.8,N
1702879875.3,286047000.7,N
1702879895.1,286047000.1,N
1702879915.9,286046998.3,N
1702879935.7,286046998.1,N
1702879955.6,286047000.4,N
1702879975.4,286046999.9,N
1702879995.2,286047002.4,N
1702880015.1,286047002.0,N
1702880016.0,286047002.0,N
1702880035.8,286047000.3,N
1702880055.6,286047000.3,N
1702880075.5,286046999.7,N
1702880095.3,286047001.8,N
1702880115.2,286047001.3,N
1702880135.9,286047002.2,N
1702880155.7,286047003.7,N
1702880175.6,286047003.1,N
1702880195.4,286047003.9,N
1702880215.2,286047001.6,N
1702880235.1,286047004.1,N
1702880236.0,286047004.1,N
1702880255.8,286047004.0,N
1702880275.7,286047002.3,N
1702880295.5,286047002.7,N
1702880315.3,286047002.4,N
1702880335.2,286047002.0,N
1702880355.0,286047004.4,N
1702880355.9,286047004.4,N
1702880375.7,286047003.8,N
1702880395.6,286047005.5,Y
1702880415.4,286047003.2,P
1702880435.3,286047003.2,P
1702880455.1,286047003.3,P
1702880456.0,286047003.3,Y
1702880475.8,286047000.4,P
1702880495.7,286047000.2,N
1702880515.5,286046999.8,N
1702880535.4,286047000.3,N
1702880555.2,286047000.5,N
1702880575.0,286047000.0,N
1702880575.9,286047000.0,N
1702880595.8,286047002.2,N
1702880615.6,286047002.5,N
1702880635.4,286047000.3,N
1702880655.3,286047000.1,N
1702880675.1,286047001.8,N
1702880695.9,286047004.4,Y
1702880715.7,286047001.8,P
1702880735.5,286047003.9,P
1702880755.4,286047003.5,N
1702880775.2,286047001.5,N
1702880795.0,286047002.9,N
1702880795.9,286047002.9,N
1702880815.8,286047002.5,N
1702880835.6,286047002.3,N
1702880855.5,286047001.9,N
1702880875.3,286047001.9,N
1702880895.1,286047003.5,Y
1702880915.9,286046999.9,P
1702880935.7,286047002.1,N
1702880955.5,286047002.7,N
1702880975.4,286047002.3,N
1702880995.2,286047001.4,N
1702881015.1,286047002.5,N
1702881016.0,286047002.5,N
1702881035.8,286047000.0,N
1702881055.6,286047000.2,N
1702881075.5,286047000.4,N
1702881095.3,286047002.7,N
1702881115.1,286047000.2,N
1702881135.9,286047000.2,N
1702881155.7,286047002.0,N
1702881175.6,286047003.9,Y
1702881195.4,286047002.8,P
1702881215.2,286047000.2,N
1702881235.1,286047000.1,N
1702881236.0,286047000.1,N
1702881255.8,286047002.5,N
1702881275.7,286047000.0,N
1702881295.5,286047000.5,N
1702881315.3,286047000.0,N
1702881335.2,286046998.1,N
1702881355.0,286047000.8,N
1702881355.9,286047000.8,N
1702881375.8,286047000.1,N
1702881395.6,286047002.4,N
1702881415.4,286046999.8,N
1702881435.3,286047004.2,Y
1702881455.1,286047001.6,P
1702881475.8,286047000.4,N
1702881495.7,286047000.7,N
1702881515.5,286047001.0,N
1702881535.4,286046998.5,Y
1702881555.2,286046997.0,P
1702881575.0,286046998.5,N
1702881575.9,286046998.5,N
1702881595.8,286046998.5,N
1702881615.6,286047000.3,N
1702881635.4,286047001.1,N
1702881655.3,286046998.5,N
1702881675.1,286046998.6,N
1702881695.9,286047000.2,N
1702881715.7,286047002.1,N
1702881735.5,286047000.3,N
1702881755.4,286047002.3,N
1702881775.2,286047000.2,N
1702881795.0,286047000.9,N
1702881795.9,286047000.9,N
1702881815.8,286047000.0,N
1702881835.6,286047002.2,N
1702881855.5,286047001.7,N
1702881875.3,286047004.3,N
1702881895.1,286047004.1,N
1702881915.9,286047002.2,N
1702881935.7,286047002.1,N
1702881955.5,286047000.2,N
1702881975.4,286047000.8,N
1702881995.2,286047001.2,N
1702882015.1,286046999.7,N
1702882016.0,286046999.7,N
1702882035.8,286047002.1,N
1702882055.6,286047002.4,N
1702882075.5,286046999.9,N
1702882095.3,286046998.3,N
1702882115.1,286046998.9,N
1702882135.9,286046998.3,N
1702882155.7,286046998.5,N
1702882175.6,286047001.0,N
1702882195.4,286047000.1,N
1702882215.2,286046999.8,N
1702882235.1,286047001.0,N
1702882236.0,286047001.0,N
1702882255.8,286047000.1,N
1702882275.7,286047000.2,N
1702882295.5,286047001.1,N
1702882315.3,286046999.9,N
1702882335.2,286047000.0,N
1702882355.9,286047002.8,N
1702882375.7,286047000.6,N
1702882395.6,286047000.1,N
1702882415.4,286046999.8,N
1702882435.2,286047001.2,N
1702882455.1,286047000.5,N
1702882456.0,286047000.5,N
1702882475.8,286047000.2,N
1702882495.7,286047000.5,N
1702882515.5,286047000.3,N
1702882535.3,286047002.4,N
1702882555.2,286047002.6,N
1702882575.0,286047001.4,N
1702882575.9,286047001.4,N
1702882595.8,286047001.3,N
1702882615.6,286047002.0,N
1702882635.4,286047002.1,N
1702882655.3,286047002.3,N
1702882675.1,286047002.7,N
1702882695.9,286047004.4,Y
1702882715.7,286047002.3,P
1702882735.5,286047000.0,N
1702882755.4,286046999.8,N
1702882775.2,286046998.3,N
1702882795.0,286046998.7,N
1702882795.9,286046998.7,N
